Wind_Speed
122 122 125 126 125 125 123 123 123 121 120 119 116 115 116 115 113 112 108 107 108 108 108 108 106 107 104 105 102 101 99 102 99 98 96 88 89 87 87 85 83 84 84
124 122 122 127 127 126 126 127 127 124 125 124 123 120 120 118 117 115 111 109 110 111 112 109 106 108 111 105 104 101 100 100 98 97 97 100 97 96 95 95 95 95 97
126 126 123 123 122 126 130 129 132 128 127 128 126 124 125 121 119 117 115 112 115 114 114 112 111 107 108 105 103 104 103 105 107 105 104 104 103 99 97 98 96 91 88
125 126 125 124 125 126 127 129 137 133 135 131 128 126 126 124 121 120 117 115 115 116 118 114 113 113 113 113 113 113 117 114 111 106 103 102 103 102 97 95 97 88 84
123 125 127 129 129 128 126 127 128 130 135 137 131 131 131 128 126 123 124 123 120 122 122 121 117 118 117 116 117 119 115 113 111 109 105 105 105 103 100 93 87 83 81
122 125 129 129 130 129 130 129 129 127 125 130 133 137 134 135 131 129 129 128 126 124 123 124 122 122 120 120 121 121 119 115 113 111 109 105 105 100 96 91 88 84 83
118 124 127 129 130 131 132 132 132 130 129 127 126 126 125 128 131 132 132 132 130 126 120 121 121 120 118 117 120 119 115 112 110 107 104 102 98 97 93 91 88 85 85
108 117 123 127 128 129 131 132 132 131 130 129 129 128 125 127 127 126 125 121 119 119 117 117 117 115 114 114 114 112 110 108 106 105 103 102 101 100 96 92 91 90 90
101 106 113 121 124 127 129 129 130 131 131 130 130 129 129 129 129 127 124 123 122 121 119 117 118 118 117 116 117 115 112 111 111 108 107 107 106 103 101 99 96 94 94
99 102 105 110 115 119 122 124 126 128 129 130 130 131 131 131 130 128 126 124 122 122 122 122 121 119 120 118 117 116 115 114 113 112 112 111 109 107 105 103 101 100 97
96 99 102 105 108 111 114 117 120 123 125 126 127 129 131 131 130 130 128 126 126 125 125 125 124 123 123 123 122 121 120 118 117 115 115 114 112 110 108 106 105 104 102
94 96 98 101 102 105 108 111 115 118 120 123 124 126 126 126 127 128 128 128 128 128 127 126 126 126 126 126 126 125 123 122 120 118 117 115 113 113 112 111 108 106 102
90 93 95 97 99 101 103 106 108 111 113 116 117 119 121 122 123 124 124 125 126 126 126 125 125 125 125 125 125 124 122 120 120 119 118 118 116 113 110 108 106 102 102
91 92 92 94 96 99 101 102 103 106 107 109 111 114 116 117 119 120 121 121 122 122 122 121 122 122 122 121 121 120 120 119 118 117 116 115 112 111 108 107 106 103 103
94 94 94 94 94 96 98 99 100 100 101 103 104 105 105 108 111 113 114 115 115 116 118 119 120 119 119 118 119 119 120 120 119 118 116 116 113 112 109 106 105 103 100
94 96 97 97 96 96 95 97 97 97 98 98 99 99 100 102 102 103 105 108 111 113 114 114 115 116 115 115 115 115 114 114 114 113 112 111 110 106 104 102 101 98 96
93 95 97 98 98 99 99 97 97 96 97 97 97 96 96 96 97 98 99 100 101 103 104 105 106 107 107 108 109 108 107 108 107 107 106 106 103 100 97 95 93 92 92
93 95 96 97 98 99 100 100 99 98 97 97 96 95 94 94 93 93 93 94 95 95 95 94 95 96 98 100 100 99 99 99 98 98 97 95 94 93 92 91 89 88 87
86 92 95 97 98 99 99 100 101 100 99 98 95 93 92 92 91 91 89 90 90 89 88 88 89 88 89 91 91 91 90 91 91 91 89 87 87 88 87 85 85 83 83
82 85 88 93 97 98 98 99 100 101 102 101 98 95 94 93 92 90 88 87 86 86 85 85 84 83 83 85 86 85 86 87 87 87 86 84 84 85 85 83 82 83 83
75 81 85 87 89 91 94 98 100 100 101 99 99 99 98 97 94 90 89 87 86 85 84 84 82 80 79 79 79 80 82 83 84 83 83 82 80 80 81 80 79 78 79
70 75 80 82 86 87 87 90 94 99 100 99 97 98 98 98 96 94 91 89 87 85 85 83 81 79 77 77 76 74 76 77 79 80 80 79 78 78 77 77 76 76 76
62 69 74 77 79 81 83 86 89 90 91 93 95 97 97 96 95 93 92 90 88 86 85 83 81 79 77 75 75 73 73 73 75 76 76 77 77 77 76 75 74 75 75
55 61 67 73 76 77 78 82 85 86 89 89 89 91 93 93 92 92 91 90 89 88 85 84 82 79 78 77 76 74 72 71 71 71 71 73 74 75 75 75 75 75 74
50 53 56 63 68 72 76 77 79 81 84 85 87 88 90 90 89 87 87 88 89 88 86 84 83 81 79 78 77 76 75 73 72 72 71 70 72 73 74 73 73 72 69
49 50 51 53 55 60 65 68 72 74 75 78 82 85 86 87 86 85 84 83 85 85 86 84 83 83 80 79 79 78 77 76 75 74 73 69 66 69 71 71 71 69 69
Wind_Direction
233 233 232 231 231 231 232 234 236 237 239 241 241 242 242 245 247 247 247 248 250 250 252 253 254 253 255 259 259 260 261 262 266 269 269 267 269 268 268 270 268 272 270
233 233 234 232 233 234 233 234 235 236 238 239 239 242 243 244 246 247 247 248 249 250 251 254 255 256 257 258 259 259 260 260 262 263 262 266 266 267 266 268 268 273 273
234 234 234 234 235 236 235 234 235 238 239 239 240 242 243 244 244 245 246 247 247 250 252 252 252 253 255 255 254 251 257 258 263 264 266 266 268 269 270 270 274 275 278
235 235 236 235 235 237 237 237 235 239 238 240 241 242 243 244 243 244 246 248 250 252 252 252 252 252 252 254 254 255 257 261 264 265 267 268 269 272 272 272 274 276 275
234 235 236 237 237 237 238 238 238 240 239 239 241 242 243 245 246 246 245 248 252 253 253 255 254 253 254 256 257 259 260 262 264 267 268 269 271 272 275 274 273 273 274
233 234 236 237 238 239 239 238 239 240 240 240 242 242 245 244 245 247 246 249 252 254 255 256 256 257 257 257 259 261 262 263 265 267 269 269 270 270 270 270 270 270 272
233 234 235 236 238 239 240 241 241 241 241 241 241 242 244 245 246 248 248 250 252 253 254 255 257 257 259 260 261 261 263 264 265 266 266 267 267 267 266 267 268 269 269
234 234 234 236 237 238 239 240 241 242 243 243 244 244 245 245 246 247 247 249 250 252 254 255 256 257 258 259 260 260 261 262 264 264 265 265 265 266 267 267 268 269 269
235 235 236 236 236 238 238 239 240 241 242 243 244 245 245 246 247 248 248 248 249 251 253 254 255 256 257 258 258 259 261 261 262 262 263 264 266 267 267 267 268 269 270
237 236 236 236 237 238 239 240 240 241 242 243 243 244 245 246 247 247 248 249 251 252 252 253 254 255 256 257 258 259 260 261 262 263 264 265 266 267 268 267 266 268 269
237 238 238 238 238 238 238 239 240 241 242 243 244 245 245 246 247 247 248 249 250 251 252 253 254 255 255 257 258 259 261 262 263 264 265 266 267 269 269 268 267 268 267
237 238 238 239 240 240 240 240 240 241 241 242 244 245 246 247 248 248 248 249 250 251 252 253 254 255 256 257 258 259 261 262 263 265 266 266 266 267 268 267 267 267 266
241 240 239 240 241 241 242 242 242 243 244 244 244 245 246 247 248 249 249 250 251 252 252 253 254 255 256 257 258 259 260 261 262 264 264 264 264 265 266 266 265 265 265
241 242 241 240 241 242 243 243 244 244 244 245 245 245 246 246 247 248 249 250 251 252 253 254 255 256 257 258 259 261 261 262 262 263 263 264 265 265 266 266 265 263 263
240 242 242 242 242 241 242 243 244 245 246 246 246 246 247 247 248 249 249 250 251 252 253 254 255 256 257 257 258 258 259 260 261 262 263 263 264 264 264 265 265 264 264
239 240 241 242 242 243 242 243 243 244 246 247 247 248 248 247 247 248 248 249 250 251 252 253 254 255 256 257 258 259 260 260 261 262 263 263 263 264 265 265 264 264 264
238 239 240 240 241 242 243 243 244 244 245 245 246 248 249 250 250 250 250 250 250 251 253 254 255 255 256 257 257 258 258 259 260 260 261 262 262 263 263 264 264 264 264
238 238 239 240 240 241 242 244 245 245 245 245 246 246 246 248 250 251 251 251 251 252 252 252 253 254 255 256 256 257 257 257 258 258 259 260 261 261 262 263 263 263 263
241 240 239 239 240 241 241 242 243 244 245 246 247 247 247 247 248 249 250 250 251 252 253 253 253 254 255 255 256 256 256 256 256 256 258 258 259 260 261 262 263 264 263
241 241 243 243 241 240 240 241 243 243 243 244 245 246 247 247 247 247 249 250 251 252 252 253 255 255 256 256 256 256 256 256 256 256 257 258 259 260 261 262 262 262 263
243 243 244 244 244 245 244 243 242 243 243 244 244 244 245 246 247 247 247 249 249 250 251 252 253 254 254 255 255 255 255 255 256 257 257 258 258 259 260 260 260 260 262
242 243 245 244 245 245 245 245 246 246 245 244 244 244 244 244 245 246 246 247 248 249 250 251 251 252 253 254 255 255 256 256 257 257 257 258 258 258 259 260 260 260 261
242 243 243 244 246 246 245 246 247 247 247 248 247 245 244 244 245 245 245 245 246 246 247 249 251 252 253 255 256 255 256 256 257 258 258 258 259 259 259 260 260 261 262
241 242 243 244 245 247 248 247 246 246 247 247 246 247 247 247 246 245 244 245 246 246 246 246 247 248 250 251 252 254 255 256 257 258 258 259 260 260 260 260 260 260 262
245 242 242 243 244 245 246 247 248 248 247 246 246 246 246 247 246 246 245 244 244 245 246 246 247 247 247 249 250 252 254 255 255 256 258 260 260 260 259 259 261 262 263
247 245 244 244 244 245 246 246 248 249 248 247 246 246 245 246 246 246 244 243 243 244 245 245 246 246 247 247 248 250 252 254 255 256 257 258 259 260 260 260 261 263 264
Height
10511 10527 10542 10552 10562 10570 10577 10585 10592 10600 10609 10617 10625 10633 10640 10649 10656 10664 10670 10677 10683 10689 10693 10698 10702 10706 10710 10715 10719 10721 10723 10725 10728 10732 10733 10735 10739 10742 10743 10746 10751 10755 10759
10494 10507 10519 10529 10537 10547 10555 10564 10571 10579 10586 10595 10603 10611 10618 10627 10635 10643 10651 10656 10662 10668 10674 10678 10682 10687 10692 10694 10699 10703 10705 10708 10710 10714 10719 10723 10727 10727 10729 10732 10736 10736 10740
10469 10482 10495 10503 10512 10524 10532 10541 10551 10559 10567 10574 10580 10589 10598 10605 10613 10619 10629 10635 10641 10648 10653 10658 10663 10668 10673 10677 10680 10685 10687 10692 10694 10696 10700 10704 10708 10708 10712 10714 10718 10718 10721
10449 10461 10471 10479 10485 10495 10507 10518 10529 10538 10547 10554 10561 10567 10576 10583 10590 10597 10605 10612 10619 10627 10632 10639 10644 10650 10653 10657 10662 10666 10668 10672 10676 10678 10682 10685 10688 10691 10695 10697 10699 10699 10704
10424 10435 10443 10448 10459 10472 10483 10494 10506 10515 10522 10530 10537 10545 10552 10561 10568 10574 10582 10589 10596 10604 10611 10617 10622 10628 10632 10637 10642 10646 10650 10652 10656 10659 10662 10665 10669 10671 10675 10677 10680 10682 10685
10399 10407 10413 10425 10436 10448 10459 10468 10477 10486 10495 10504 10513 10522 10529 10537 10545 10551 10558 10565 10573 10579 10585 10593 10600 10607 10612 10616 10620 10624 10628 10631 10635 10639 10642 10646 10650 10653 10658 10661 10661 10665 10666
10375 10383 10392 10399 10410 10421 10430 10440 10451 10461 10470 10479 10488 10498 10505 10514 10522 10529 10536 10542 10550 10557 10561 10568 10575 10582 10586 10590 10595 10601 10604 10608 10612 10616 10620 10625 10629 10634 10638 10643 10644 10646 10648
10350 10359 10367 10375 10385 10393 10403 10414 10425 10437 10447 10457 10465 10474 10482 10491 10498 10506 10512 10518 10525 10532 10538 10545 10552 10557 10561 10566 10571 10576 10580 10584 10588 10593 10597 10602 10607 10613 10617 10622 10626 10627 10629
10325 10332 10341 10349 10357 10366 10376 10388 10400 10411 10421 10430 10438 10447 10457 10466 10474 10481 10488 10494 10502 10509 10515 10521 10527 10532 10538 10543 10548 10553 10557 10561 10566 10570 10574 10579 10584 10588 10593 10598 10603 10607 10609
10301 10307 10314 10322 10330 10340 10352 10362 10373 10382 10391 10400 10409 10418 10427 10436 10445 10452 10459 10467 10475 10483 10489 10494 10501 10507 10513 10517 10522 10527 10532 10536 10541 10546 10550 10554 10559 10564 10569 10574 10578 10583 10587
10278 10284 10290 10298 10307 10317 10326 10335 10344 10354 10362 10372 10380 10389 10398 10407 10414 10422 10430 10439 10447 10455 10462 10468 10474 10481 10486 10492 10497 10502 10507 10511 10516 10520 10524 10528 10533 10537 10542 10546 10550 10554 10559
10252 10260 10267 10274 10282 10291 10299 10308 10316 10324 10333 10342 10351 10359 10368 10376 10384 10392 10401 10410 10419 10426 10434 10440 10447 10453 10459 10465 10470 10476 10481 10485 10489 10494 10498 10500 10505 10509 10512 10515 10520 10525 10528
10228 10236 10243 10251 10259 10267 10273 10281 10290 10298 10307 10315 10323 10331 10339 10348 10356 10365 10374 10383 10391 10398 10405 10412 10419 10425 10430 10437 10442 10448 10453 10458 10462 10466 10470 10471 10475 10480 10483 10487 10490 10493 10497
10203 10210 10218 10226 10234 10241 10248 10256 10263 10271 10279 10287 10295 10303 10312 10321 10329 10338 10347 10355 10363 10370 10378 10385 10391 10397 10403 10409 10414 10418 10423 10429 10433 10437 10440 10443 10446 10450 10452 10455 10459 10462 10465
10179 10185 10193 10200 10207 10215 10222 10230 10238 10246 10253 10260 10268 10276 10288 10294 10303 10312 10321 10329 10337 10345 10351 10357 10364 10371 10377 10383 10388 10392 10396 10400 10404 10407 10410 10413 10416 10418 10420 10425 10428 10431 10436
10153 10160 10167 10175 10182 10191 10199 10205 10213 10221 10229 10236 10244 10253 10261 10267 10276 10284 10292 10300 10308 10316 10323 10329 10336 10342 10348 10354 10360 10366 10370 10374 10377 10380 10383 10385 10388 10391 10393 10396 10399 10402 10406
10127 10134 10142 10150 10158 10165 10172 10179 10188 10197 10205 10211 10219 10228 10236 10242 10252 10261 10268 10276 10282 10289 10296 10303 10309 10315 10320 10325 10331 10337 10342 10346 10349 10352 10355 10358 10362 10365 10367 10370 10372 10376 10378
10103 10109 10117 10124 10132 10139 10147 10154 10163 10170 10178 10186 10195 10204 10212 10219 10229 10236 10244 10250 10257 10264 10270 10277 10282 10289 10294 10298 10303 10310 10315 10319 10322 10326 10329 10334 10336 10339 10342 10344 10347 10350 10352
10082 10086 10092 10098 10105 10113 10122 10130 10137 10144 10152 10159 10169 10181 10189 10197 10204 10211 10220 10226 10234 10241 10247 10252 10257 10264 10269 10273 10279 10285 10290 10294 10297 10301 10305 10311 10313 10313 10317 10321 10322 10326 10328
10060 10066 10070 10074 10079 10087 10096 10104 10110 10118 10125 10133 10145 10154 10162 10170 10177 10188 10197 10203 10212 10218 10223 10228 10235 10242 10246 10250 10256 10262 10267 10270 10273 10277 10282 10286 10290 10290 10292 10298 10301 10302 10302
10042 10046 10049 10054 10059 10066 10075 10080 10084 10090 10096 10109 10121 10130 10136 10143 10153 10165 10172 10180 10187 10193 10200 10206 10214 10221 10225 10229 10234 10240 10244 10248 10251 10255 10260 10264 10267 10269 10270 10274 10278 10281 10281
10021 10025 10029 10032 10037 10043 10051 10057 10062 10066 10074 10083 10095 10102 10109 10117 10128 10139 10148 10157 10164 10172 10178 10184 10192 10198 10203 10207 10212 10218 10223 10227 10229 10233 10238 10243 10246 10248 10250 10252 10256 10259 10261
10002 10005 10007 10010 10015 10021 10028 10034 10038 10044 10051 10061 10070 10076 10083 10092 10102 10114 10123 10132 10141 10149 10157 10163 10171 10177 10182 10186 10191 10198 10202 10206 10209 10213 10217 10220 10224 10227 10230 10233 10235 10237 10240
9984 9986 9988 9991 9995 10000 10005 10010 10014 10021 10028 10036 10044 10052 10059 10068 10078 10088 10098 10107 10115 10124 10133 10141 10149 10157 10163 10167 10171 10177 10182 10186 10190 10193 10196 10200 10205 10208 10211 10214 10217 10219 10221
9968 9969 9971 9973 9977 9981 9983 9988 9992 9997 10004 10011 10019 10028 10035 10043 10052 10063 10073 10082 10090 10098 10106 10116 10125 10133 10141 10146 10151 10157 10162 10167 10171 10175 10179 10183 10186 10190 10192 10195 10198 10201 10203
9950 9952 9953 9954 9957 9961 9964 9968 9971 9974 9980 9986 9994 10001 10010 10019 10028 10039 10049 10058 10065 10073 10082 10092 10099 10109 10118 10124 10131 10136 10142 10146 10151 10156 10161 10165 10169 10172 10175 10177 10180 10182 10183